Hourly Data Report for October 05, 2017

All times are specified in Local Standard Time (LST). Add 1 hour to adjust for Daylight Saving Time where and when it is observed.

RANKIN INLET A
NUNAVUT

62°48'38.000" N
92°06'53.000" W
32.30 m
2303405
71083
YRT

Download Data

Hourly Data (October 2017)
Hourly Data Report for October 5, 2017
Temp Definition
°C
Dew Point Temp Definition
°C
Rel Hum Definition
%
Wind Dir Definition
10's deg

Wind Spd Definition
km/h
Visibility Definition
km
Stn Press Definition
kPa
Hmdx Definition


Wind Chill Definition


Weather Definition


TIME
00:00 Legend Double Dagger -4.1 -6.8 82 30 58 16.1 99.35   -14 Snow,Blowing Snow
01:00 Legend Double Dagger -4.2 -6.4 84 30 51 16.1 99.31   -14 Moderate Snow,Blowing Snow
02:00 Legend Double Dagger -4.1 -6.3 85 30 48 6.4 99.27   -14 Snow,Blowing Snow
03:00 Legend Double Dagger -4.3 -6.7 83 31 53 9.7 99.24   -14 Snow,Blowing Snow
04:00 Legend Double Dagger -4.4 -6.5 86 30 47 6.4 99.23   -14 Snow,Blowing Snow
05:00 Legend Double Dagger -4.8 -6.7 87 31 44 6.4 99.20   -14 Snow,Blowing Snow
06:00 Legend Double Dagger -4.8 -6.8 86 31 44 12.9 99.15   -14 Snow,Blowing Snow
07:00 Legend Double Dagger -4.7 -6.9 84 30 48 6.4 99.12   -14 Snow,Fog
08:00 Legend Double Dagger -4.2 -6.2 86 31 41 4.8 99.08   -13 Snow,Blowing Snow
09:00 Legend Double Dagger -3.9 -5.7 87 31 46 3.2 99.05   -13 Snow,Blowing Snow
10:00 Legend Double Dagger -3.0 -5.3 84 31 55 3.2 99.03   -13 Snow,Blowing Snow
11:00 Legend Double Dagger -2.5 -4.6 86 32 51 4.0 99.03   -12 Snow,Blowing Snow
12:00 Legend Double Dagger -2.1 -4.1 86 32 53 1.6 99.04   -11 Snow,Blowing Snow
13:00 Legend Double Dagger -1.9 -3.8 87 33 46 12.9 99.06   -10 Snow,Blowing Snow
14:00 Legend Double Dagger -2.0 -3.4 91 33 41 6.4 99.11   -10 Snow,Blowing Snow
15:00 Legend Double Dagger -2.0 -4.2 85 33 41 12.9 99.15   -10 Snow,Blowing Snow
16:00 Legend Double Dagger -1.9 -4.0 86 32 39 12.9 99.23   -10 Snow,Blowing Snow
17:00 Legend Double Dagger -2.5 -4.5 86 31 31 24.1 99.25   -10 Snow
18:00 Legend Double Dagger -3.1 -5.0 87 32 31 24.1 99.25   -11 Mainly Clear
19:00 Legend Double Dagger -3.4 -4.8 90 33 29 24.1 99.25   -11 LegendNANA
20:00 Legend Double Dagger -3.7 -5.5 88 34 23 24.1 99.26   -10 LegendNANA
21:00 Legend Double Dagger -4.5 -6.5 86 34 25 24.1 99.29   -12 Clear
22:00 Legend Double Dagger -4.7 -6.8 85 34 30 24.1 99.28   -13 LegendNANA
23:00 Legend Double Dagger -5.8 -7.4 89 33 31 24.1 99.31   -14 LegendNANA

Notes on Data Quality.

Legend

  • E = Estimated
  • M = Missing
  • NA = Not Available
  • ‡ = Partner data that is not subject to review by the National Climate Archives
Date modified: